sat.trackr.live / text

‹ back to catalog

RADARSAT-2

NORAD 32382 · 2007-061A

PAYLOAD ACTIVE UNKNOWN

§ Identity

Operator
Country
CA
Launch date
2007-12-14
Launch site
TYMSC
Launch vehicle
Mass (kg)
RCS (m²)
8.38

Purposes: earth_obs

External: N2YO · Heavens-Above · Gunter

§ Orbital elements

Epoch: 2026-09-10T04:37:02.152992Z

Period
100.70 min
Inclination
98.5818°
Eccentricity
0.0001279
Mean motion
14.29982649 rev/d
Perigee alt
790.9 km
Apogee alt
792.7 km
Semi-major
7,169.9 km
B*
1.3760e-4
RAAN
258.9237°
Arg perigee
83.6749°
Mean anomaly
276.4579°
Rev number
97,810

§ Raw data

RADARSAT-21 32382U 07061A   26253.19238603  .00000311  00000+0  13760-3 0  99962 32382  98.5818 258.9237 0001279  83.6749 276.4579 14.29982649978100

JSON: /api/v1/satellites/32382 · /tle

For live sub-satellite position, see the globe view (requires WebGL).

§ Visibility from observer

Set your observer location to see the next 7 days of passes ≥ 10°. The values pass through the URL so the page stays shareable.

No JS? Fill the form by hand. The geolocation button needs JavaScript.

§ Radio — SatNOGS DB

ModeDescriptionDownlinkUplink
FM S-band telemetry 2.230 GHz

1 transmitter · refreshed weekly from db.satnogs.org